KD5UIG Weather Reports


Display with metric or nautical units.
time (UTC)temp
F
wind
direction
speed
MPH
gust
MPH
rain 1hr
in
rain 24hr
in
rain mn
in
humidity
%
barometer
mb
20260503025055 66 0 0.0 2.0 0.00 0.00 0.00 58 1019.2
20260503024621 66 0 0.0 2.0 0.00 0.00 0.00 57 1019.1
20260503024058 66 0 0.0 2.0 0.00 0.00 0.00 57 1019.1
20260503023556 67 360 0.0 2.0 0.00 0.00 0.00 57 1019.0
20260503023102 67 0 0.0 2.0 0.00 0.00 0.00 57 1019.0
20260503022559 68 0 0.0 2.0 0.00 0.00 0.00 56 1019.0
20260503022055 68 360 0.0 0.0 0.00 0.00 0.00 56 1018.9
20260503021604 68 0 0.0 0.0 0.00 0.00 0.00 55 1018.9
20260503021055 69 0 0.0 0.0 0.00 0.00 0.00 54 1018.9
20260503020557 69 0 0.0 2.0 0.00 0.00 0.00 53 1018.9
20260503020053 69 0 0.0 2.0 0.00 0.00 0.00 53 1018.8
20260503015556 70 0 0.0 2.0 0.00 0.00 0.00 52 1018.7
20260503015055 70 0 0.0 2.0 0.00 0.00 0.00 51 1018.7
20260503014554 71 0 0.0 2.0 0.00 0.00 0.00 49 1018.6
20260503014055 71 0 0.0 3.0 0.00 0.00 0.00 49 1018.6
20260503013556 72 0 0.0 3.0 0.00 0.00 0.00 48 1018.6
20260503013057 72 0 0.0 2.0 0.00 0.00 0.00 47 1018.6
20260503012558 73 0 0.0 2.0 0.00 0.00 0.00 46 1018.5
20260503012055 74 0 0.0 2.0 0.00 0.00 0.00 46 1018.5
20260503011603 74 0 0.0 2.0 0.00 0.00 0.00 45 1018.4
20260503011055 75 0 0.0 2.0 0.00 0.00 0.00 45 1018.4
20260503010555 75 0 0.0 2.0 0.00 0.00 0.00 44 1018.4
20260503010055 76 0 0.0 2.0 0.00 0.00 0.00 44 1018.4
20260503005555 77 0 0.0 2.0 0.00 0.00 0.00 44 1018.4
20260503005056 77 0 0.0 2.0 0.00 0.00 0.00 44 1018.3
20260503004556 77 0 0.0 1.0 0.00 0.00 0.00 43 1018.3
20260503004057 77 0 0.0 1.0 0.00 0.00 0.00 42 1018.3
20260503003556 77 0 0.0 1.0 0.00 0.00 0.00 43 1018.3
20260503003059 78 0 0.0 2.0 0.00 0.00 0.00 43 1018.3
20260503002556 78 0 0.0 2.0 0.00 0.00 0.00 42 1018.4
20260503002056 78 0 0.0 2.0 0.00 0.00 0.00 41 1018.3
20260503001603 78 0 0.0 3.0 0.00 0.00 0.00 42 1018.3
20260503001057 78 0 0.0 3.0 0.00 0.00 0.00 41 1018.2
20260503000556 78 0 0.0 4.0 0.00 0.00 0.00 41 1018.3
20260503000108 78 0 0.0 4.0 0.00 0.00 0.00 40 1018.3
20260502235555 78 0 1.0 4.0 0.00 0.00 0.00 42 1018.4
20260502235055 78 0 1.0 3.0 0.00 0.00 0.00 40 1018.4
20260502234614 78 271 0.0 4.0 0.00 0.00 0.00 41 1018.4
20260502234056 78 0 1.0 6.0 0.00 0.00 0.00 38 1018.5
20260502233558 78 271 1.0 6.0 0.00 0.00 0.00 40 1018.5
20260502233109 77 254 2.0 6.0 0.00 0.00 0.00 40 1018.5
20260502232555 77 269 1.0 6.0 0.00 0.00 0.00 40 1018.6
20260502232055 77 0 0.0 3.0 0.00 0.00 0.00 43 1018.6
20260502231606 77 0 0.0 3.0 0.00 0.00 0.00 41 1018.5
20260502231055 78 0 0.0 3.0 0.00 0.00 0.00 40 1018.6
20260502230554 78 0 0.0 3.0 0.00 0.00 0.00 43 1018.6
20260502230056 77 201 0.0 3.0 0.00 0.00 0.00 41 1018.7
20260502225555 77 0 1.0 4.0 0.00 0.00 0.00 40 1018.7
20260502225057 77 269 2.0 6.0 0.00 0.00 0.00 41 1018.8
20260502224555 78 271 1.0 6.0 0.00 0.00 0.00 39 1018.8
20260502224055 79 199 2.0 5.0 0.00 0.00 0.00 39 1018.8
20260502223555 79 0 1.0 5.0 0.00 0.00 0.00 41 1018.8
20260502223057 79 178 0.0 4.0 0.00 0.00 0.00 40 1018.7
20260502222555 80 244 0.0 7.0 0.00 0.00 0.00 39 1018.8
20260502222056 80 225 1.0 7.0 0.00 0.00 0.00 38 1018.9
20260502221603 80 288 2.0 7.0 0.00 0.00 0.00 39 1018.9
20260502221057 80 296 1.0 4.0 0.00 0.00 0.00 40 1018.8
20260502220555 78 0 0.0 4.0 0.00 0.00 0.00 38 1018.9
20260502220104 78 0 0.0 6.0 0.00 0.00 0.00 38 1018.9
20260502215555 79 0 1.0 6.0 0.00 0.00 0.00 39 1018.9
20260502215054 79 341 1.0 4.0 0.00 0.00 0.00 39 1018.9
20260502214606 79 0 0.0 6.0 0.00 0.00 0.00 37 1019.0
20260502214055 80 274 2.0 6.0 0.00 0.00 0.00 38 1019.1
20260502213557 81 0 1.0 9.0 0.00 0.00 0.00 40 1019.1
20260502213056 79 248 1.0 9.0 0.00 0.00 0.00 43 1019.2
20260502212555 80 279 1.0 8.0 0.00 0.00 0.00 38 1019.3
20260502212055 79 0 3.0 8.0 0.00 0.00 0.00 38 1019.3
20260502211554 80 276 1.0 9.0 0.00 0.00 0.00 38 1019.3
20260502211056 80 272 2.0 9.0 0.00 0.00 0.00 38 1019.3
20260502210554 81 267 2.0 7.0 0.00 0.00 0.00 37 1019.3
20260502205555 79 211 0.0 6.0 0.00 0.00 0.00 41 1019.5
20260502205055 76 0 1.0 6.0 0.00 0.00 0.00 38 1019.6
20260502204553 77 265 0.0 4.0 0.00 0.00 0.00 45 1019.7
20260502204056 76 0 1.0 8.0 0.00 0.00 0.00 38 1019.8
20260502203555 77 286 1.0 8.0 0.00 0.00 0.00 39 1020.0
20260502203058 78 0 2.0 8.0 0.00 0.00 0.00 39 1020.0
20260502202555 79 0 0.0 3.0 0.00 0.00 0.00 40 1020.1
20260502202055 76 60 0.0 3.0 0.00 0.00 0.00 44 1020.3
20260502201554 75 0 0.0 4.0 0.00 0.00 0.00 41 1020.2
20260502201055 76 0 1.0 6.0 0.00 0.00 0.00 39 1020.3
20260502200559 77 0 0.0 8.0 0.00 0.00 0.00 37 1020.3
20260502200055 79 267 3.0 8.0 0.00 0.00 0.00 36 1020.4
20260502195600 80 273 2.0 6.0 0.00 0.00 0.00 36 1020.4
20260502195059 80 155 1.0 9.0 0.00 0.00 0.00 39 1020.3
20260502194557 80 177 2.0 9.0 0.00 0.00 0.00 41 1020.4
20260502194055 79 271 3.0 9.0 0.00 0.00 0.00 37 1020.6
20260502193555 78 0 0.0 4.0 0.00 0.00 0.00 39 1020.6
20260502193053 79 205 1.0 4.0 0.00 0.00 0.00 38 1020.7
20260502192556 80 226 1.0 6.0 0.00 0.00 0.00 38 1020.6
20260502192055 79 176 0.0 6.0 0.00 0.00 0.00 40 1020.6
20260502191554 78 16 1.0 7.0 0.00 0.00 0.00 39 1020.7
20260502191055 78 249 1.0 7.0 0.00 0.00 0.00 39 1020.8
20260502190555 78 267 1.0 5.0 0.00 0.00 0.00 38 1020.9
20260502190055 76 360 0.0 3.0 0.00 0.00 0.00 36 1020.9
20260502185555 78 304 0.0 6.0 0.00 0.00 0.00 38 1021.1
20260502185055 78 281 1.0 6.0 0.00 0.00 0.00 37 1021.1
20260502184553 77 0 2.0 6.0 0.00 0.00 0.00 36 1021.1
20260502184058 76 286 1.0 5.0 0.00 0.00 0.00 36 1021.2
20260502183555 76 271 0.0 4.0 0.00 0.00 0.00 38 1021.4
20260502183058 76 338 1.0 4.0 0.00 0.00 0.00 34 1021.2
20260502182554 77 120 0.0 3.0 0.00 0.00 0.00 39 1021.4
20260502182055 77 83 0.0 4.0 0.00 0.00 0.00 34 1021.4
20260502181555 77 0 0.0 8.0 0.00 0.00 0.00 43 1021.5
20260502181059 77 272 2.0 8.0 0.00 0.00 0.00 36 1021.6
20260502180556 78 276 3.0 8.0 0.00 0.00 0.00 35 1021.7
20260502164055 75 292 1.0 3.0 0.00 0.00 0.00 35 1022.3
20260502163555 74 219 0.0 3.0 0.00 0.00 0.00 35 1022.3
20260502163057 74 74 0.0 6.0 0.00 0.00 0.00 34 1022.3
20260502162558 74 273 0.0 9.0 0.00 0.00 0.00 36 1022.4
20260502162059 73 0 1.0 9.0 0.00 0.00 0.00 36 1022.3
20260502161557 74 68 0.0 4.0 0.00 0.00 0.00 38 1022.2
20260502161055 73 55 1.0 4.0 0.00 0.00 0.00 37 1022.3
20260502160555 72 0 0.0 4.0 0.00 0.00 0.00 37 1022.2
20260502152055 71 317 1.0 3.0 0.00 0.00 0.00 44 1022.1
20260502151603 70 0 0.0 3.0 0.00 0.00 0.00 44 1022.1
20260502151059 71 281 1.0 3.0 0.00 0.00 0.00 47 1022.0
20260502150558 71 315 0.0 2.0 0.00 0.00 0.00 46 1022.1
20260502150109 69 0 0.0 2.0 0.00 0.00 0.00 46 1022.1
20260502130555 51 0 0.0 1.0 0.00 0.00 0.00 88 1021.5
20260502123555 49 0 0.0 1.0 0.00 0.00 0.00 88 1021.1
20260502123056 48 0 0.0 1.0 0.00 0.00 0.00 88 1021.1
20260502122555 48 0 0.0 0.0 0.00 0.00 0.00 88 1021.0
20260502122055 48 0 0.0 1.0 0.00 0.00 0.00 88 1020.9
20260502121554 47 0 0.0 1.0 0.00 0.00 0.00 88 1020.7
20260502121054 47 0 0.0 1.0 0.00 0.00 0.00 87 1020.7
20260502120555 47 0 0.0 1.0 0.00 0.00 0.00 87 1020.6
20260502120111 47 0 0.0 1.0 0.00 0.00 0.00 87 1020.5
20260502115556 47 0 0.0 1.0 0.00 0.00 0.00 87 1020.4
20260502115056 47 0 0.0 1.0 0.00 0.00 0.00 87 1020.4
20260502114602 47 0 0.0 1.0 0.00 0.00 0.00 87 1020.4
20260502114056 47 0 0.0 2.0 0.00 0.00 0.00 87 1020.3
20260502113555 48 0 0.0 2.0 0.00 0.00 0.00 87 1020.2
20260502113057 48 100 0.0 1.0 0.00 0.00 0.00 87 1020.2
20260502112555 48 0 0.0 1.0 0.00 0.00 0.00 87 1020.1
20260502112058 48 0 0.0 2.0 0.00 0.00 0.00 87 1020.0
20260502111600 48 0 0.0 2.0 0.00 0.00 0.00 87 1020.0
20260502111055 48 101 0.0 2.0 0.00 0.00 0.00 87 1020.0
20260502110555 48 0 0.0 0.0 0.00 0.00 0.00 87 1020.0
20260502110057 48 0 0.0 1.0 0.00 0.00 0.00 87 1019.9
20260502105555 48 0 0.0 1.0 0.00 0.00 0.00 87 1019.8
20260502105056 48 0 0.0 1.0 0.00 0.00 0.00 87 1019.8
20260502104558 48 101 0.0 1.0 0.00 0.00 0.00 87 1019.7
20260502104056 48 0 0.0 1.0 0.00 0.00 0.00 87 1019.6
20260502103557 48 0 0.0 1.0 0.00 0.00 0.00 87 1019.6
20260502103101 48 0 0.0 1.0 0.00 0.00 0.00 86 1019.7
20260502102556 48 0 0.0 1.0 0.00 0.00 0.00 86 1019.6
20260502102058 48 0 0.0 3.0 0.00 0.00 0.00 86 1019.6
20260502101557 48 101 0.0 3.0 0.00 0.00 0.00 86 1019.5
20260502101055 49 0 0.0 0.0 0.00 0.00 0.00 86 1019.3
20260502100555 49 0 0.0 0.0 0.00 0.00 0.00 86 1019.2
20260502100115 49 0 0.0 0.0 0.00 0.00 0.00 86 1019.2
20260502091055 50 0 0.0 1.0 0.00 0.00 0.00 86 1019.2
20260502090555 50 0 0.0 2.0 0.00 0.00 0.00 86 1019.3
20260502090103 51 0 0.0 2.0 0.00 0.00 0.00 86 1019.2
20260502071055 53 0 0.0 0.0 0.00 0.00 0.00 82 1019.5
20260502070555 53 0 0.0 0.0 0.00 0.00 0.00 82 1019.5
20260502070059 53 0 0.0 0.0 0.00 0.00 0.00 82 1019.5
20260502065558 53 0 0.0 0.0 0.00 0.00 0.00 82 1019.5
20260502065054 53 0 0.0 0.0 0.00 0.00 0.00 82 1019.5
20260502064606 53 0 0.0 1.0 0.00 0.00 0.00 81 1019.5
20260502064055 53 0 0.0 1.0 0.00 0.00 0.00 81 1019.5
20260502063557 53 0 0.0 1.0 0.00 0.00 0.00 81 1019.4
20260502063054 54 0 0.0 0.0 0.00 0.00 0.00 80 1019.5
20260502062555 54 0 0.0 1.0 0.00 0.00 0.00 80 1019.5
20260502062056 54 0 0.0 1.0 0.00 0.00 0.00 80 1019.4
20260502061557 54 0 0.0 0.0 0.00 0.00 0.00 79 1019.5
20260502061055 54 0 0.0 0.0 0.00 0.00 0.00 79 1019.5
20260502060555 54 0 0.0 0.0 0.00 0.00 0.00 79 1019.5
20260502060059 55 0 0.0 0.0 0.00 0.00 0.00 78 1019.6
20260502055558 55 0 0.0 0.0 0.00 0.00 0.00 78 1019.5
20260502055055 55 0 0.0 0.0 0.00 0.00 0.00 78 1019.5
20260502054556 55 0 0.0 0.0 0.00 0.00 0.00 78 1019.4
20260502054055 56 0 0.0 0.0 0.00 0.00 0.00 78 1019.4
20260502053555 56 0 0.0 0.0 0.00 0.00 0.00 77 1019.3
20260502053058 56 0 0.0 0.0 0.00 0.00 0.00 77 1019.3
20260502052555 56 0 0.0 0.0 0.00 0.00 0.00 77 1019.3
20260502052056 57 0 0.0 1.0 0.00 0.00 0.00 77 1019.3
20260502051639 57 0 0.0 1.0 0.00 0.00 0.00 77 1019.2
20260502051054 57 0 0.0 1.0 0.00 0.00 0.00 77 1019.1
20260502050555 57 0 0.0 1.0 0.00 0.00 0.00 76 1019.2
20260502050054 57 0 0.0 1.0 0.00 0.00 0.00 76 1019.0
20260502045556 58 0 0.0 1.0 0.00 0.00 0.00 75 1019.0
20260502045056 58 0 0.0 1.0 0.00 0.00 0.00 75 1018.9
20260502044605 58 0 0.0 0.0 0.00 0.00 0.00 75 1018.9
20260502044055 59 0 0.0 1.0 0.00 0.00 0.00 75 1018.9
20260502043555 59 0 0.0 1.0 0.00 0.00 0.00 75 1019.0
20260502043103 59 0 0.0 1.0 0.00 0.00 0.00 75 1019.1
20260502042557 59 0 0.0 0.0 0.00 0.00 0.00 75 1019.1
20260502042055 59 0 0.0 1.0 0.00 0.00 0.00 75 1019.2
20260502041556 59 0 0.0 1.0 0.00 0.00 0.00 75 1019.2
20260502041059 60 0 0.0 1.0 0.00 0.00 0.00 75 1019.1
20260502040555 60 0 0.0 1.0 0.00 0.00 0.00 74 1019.0
20260502040055 60 0 0.0 0.0 0.00 0.00 0.00 74 1018.9
20260502035557 60 0 0.0 0.0 0.00 0.00 0.00 73 1018.9
20260502035057 60 0 0.0 0.0 0.00 0.00 0.00 73 1018.9
20260502034554 60 0 0.0 0.0 0.00 0.00 0.00 73 1018.9
20260502034056 60 0 0.0 0.0 0.00 0.00 0.00 73 1018.9
20260502033555 60 0 0.0 0.0 0.00 0.00 0.00 73 1018.9
20260502033057 61 0 0.0 0.0 0.00 0.00 0.00 73 1019.0
20260502032555 61 0 0.0 0.0 0.00 0.00 0.00 73 1018.9
20260502032055 61 0 0.0 0.0 0.00 0.00 0.00 72 1018.8
20260502031610 61 0 0.0 0.0 0.00 0.00 0.00 72 1018.7
20260502031056 61 0 0.0 0.0 0.00 0.00 0.00 72 1018.8
20260502030558 61 0 0.0 1.0 0.00 0.00 0.00 72 1018.7
20260502030057 61 0 0.0 1.0 0.00 0.00 0.00 71 1018.6
20260502025555 61 0 0.0 0.0 0.00 0.00 0.00 70 1018.6